Newington Real Estate, NSW, 2127 Parramatta

Thinking about buying in Newington? Now could not be a better time, with a whopping 2372 properties either residential or commercial there's certainly plenty to choose from.

The average property price for this area is $1,320,000 with prices in this suburb ranging from $702,000 to $1,728,000.

Distance to the coast is 14 Km.

Newington Real Estate Market Outlook

Prices are above market average and increase steadily under persistent demand. A more sustainable rate of price growth is anticipated in the short to medium term. In this area of average incomes, there is a mix of housing size and quality. While this may present buying opportunities, growth may be constrained. As buyers begin to examine Newington due to other areas being out of the price range and the trend to working from home, "gentrification" may incease price growth. The high percentage of professional people in Newington classifies the area as "gentrified". This implies high demand for quality housing, generally of larger than average size. Price growth is ensured even where the state affordability index is negatively impacting other areas. High density population in Newington requires consistent turnover in housing ensuring constant demand. Housing styles may be a mix of low, medium, and high density, providing choice for well-financed buyers and value growth over time. High industry presence in the wider area is a double-edged sword. While local employment options are high, the presence of industrial buildings may negatively impact lifestyle perception. Demand from first home buyers and investors however ensures good price growth.

About

Properties For Sale

RayWhite 6 CLARKE ST, NEWINGTON, NSW, 2127 3 3 2 Contact Agent
RayWhite UNIT 102, 6 LATHAM TCE, NEWINGTON, NSW, 2127 2 2 1 Contact Agent

Local Schools


Newington Public School

(While the above schools are located with the suburb of Newington there may also be nearby schools whose catchments cover this suburb)

Local Crime Rates


Average Local Climate by month


(mm)
RAIN
Min (°C)
TEMP
Max (°C)
TEMP
Min (%)
HUMIDITY
Max (%)
HUMIDITY
(m/sec)
WIND
(MJ/sq m)
SOLAR
Jan2.520.327.652.485.5023.2
Feb4.320.127.054.286.5019.6
Mar6.518.925.954.587.3015.9
Apr5.915.323.551.489.0013.9
May2.612.321.247.584.4011.4
Jun4.610.318.550.385.409.1
Jul2.69.018.243.782.1010.4
Aug2.69.719.739.480.2013.1
Sept1.412.522.437.080.2017.8
Oct2.215.023.742.782.8021.1
Nov3.417.125.349.285.2023.4
Dec2.118.726.449.284.8024.4

source: Australian Government Bureau of Meteorology

Recently Sold Properties / House Prices

28-07-2022 $745,000 1 / 9 MOCKRIDGE AVE NEWINGTON 2127
25-07-2022 $1,398,000 19 LANE AVE NEWINGTON 2127
18-07-2022 $606,500 101 / 1 AVENUE OF EUROPE NEWINGTON 2127
11-07-2022 $705,000 315 / 1 AVENUE OF EUROPE NEWINGTON 2127
08-07-2022 $780,000 4 / 7 OWENS AVE NEWINGTON 2127
05-07-2022 $400,000 8 / 5 OWENS AVE NEWINGTON 2127
05-07-2022 $940,000 301 / 3 AVENUE OF EUROPE NEWINGTON 2127
01-07-2022 $792,000 18 / 3 OWENS AVE NEWINGTON 2127
27-06-2022 $780,000 19 / 17 PEARCE AVE NEWINGTON 2127
27-06-2022 $830,000 16 / 3 OWENS AVE NEWINGTON 2127
24-06-2022 $1,670,000 12 BLAXLAND AVE NEWINGTON 2127
24-06-2022 $805,000 207 / 2 LATHAM TCE NEWINGTON 2127
23-06-2022 $362,500 4 / 7 BLAXLAND AVE NEWINGTON 2127
17-06-2022 $2,335,000 29 TOOTH AVE NEWINGTON 2127
15-06-2022 $600,000 213 / 1 AVENUE OF EUROPE NEWINGTON 2127
14-06-2022 $820,000 7 / 5 DEVITT AVE NEWINGTON 2127
06-06-2022 $865,000 6 / 5 SANDPIPER CRES NEWINGTON 2127
02-06-2022 $1,740,000 4 JANET AVE NEWINGTON 2127
01-06-2022 $840,000 12 / 1 SANDPIPER CRES NEWINGTON 2127
31-05-2022 $1,791,000 4 SPITZ AVE NEWINGTON 2127
30-05-2022 $2,197,000 8 KONRADS AVE NEWINGTON 2127
24-05-2022 $810,000 3 / 1 DEVITT AVE NEWINGTON 2127
23-05-2022 $1,765,000 3 CUMBERLAND SQ NEWINGTON 2127
23-05-2022 $600,000 210 / 1 AVENUE OF EUROPE NEWINGTON 2127
13-05-2022 $753,000 10 / 11 BLAXLAND AVE NEWINGTON 2127
03-05-2022 $970,000 20 / 8 AVENUE OF THE AMERICAS NEWINGTON 2127
02-05-2022 $772,000 3 / 3 DEVITT AVE NEWINGTON 2127
22-04-2022 $808,000 9 / 17 BLAXLAND AVE NEWINGTON 2127
22-04-2022 $808,000 9 / 17 BLAXLAND AVE NEWINGTON 2127
21-04-2022 $980,000 11 / 13 BLAXLAND AVE NEWINGTON 2127
21-04-2022 $1,950,000 5 MARATHON AVE NEWINGTON 2127
19-04-2022 $585,000 102 / 1 AVENUE OF EUROPE NEWINGTON 2127
14-04-2022 $1,005,000 18 / 9 NURMI AVE NEWINGTON 2127
14-04-2022 $1,700,000 20 LEWIS WAY NEWINGTON 2127
11-04-2022 $822,000 21 / 5 MOCKRIDGE AVE NEWINGTON 2127
30-03-2022 $825,000 12 / 8 AVENUE OF THE AMERICAS NEWINGTON 2127
28-03-2022 $1,585,000 21 MANTON AVE NEWINGTON 2127
21-03-2022 $1,350,000 29 / 5 MOCKRIDGE AVE NEWINGTON 2127
10-03-2022 $1,780,000 5 SPITZ AVE NEWINGTON 2127
09-03-2022 $825,000 3 / 1 SANDPIPER CRES NEWINGTON 2127
07-03-2022 $1,430,000 5 JORDAN AVE NEWINGTON 2127
28-02-2022 $2,150,000 14 PERKINS AVE NEWINGTON 2127
23-02-2022 $880,000 18 / 3 BLAXLAND AVE NEWINGTON 2127
11-02-2022 $850,000 101 / 3 AVENUE OF EUROPE NEWINGTON 2127
07-02-2022 $1,668,000 8 ROYCROFT AVE NEWINGTON 2127
01-02-2022 $1,200,000 23 / 1 SANDPIPER CRES NEWINGTON 2127
28-01-2022 $1,900,000 1 MARATHON AVE NEWINGTON 2127
25-01-2022 $1,695,000 1 CUMBERLAND SQ NEWINGTON 2127
19-01-2022 $785,000 10 / 1 HEIDELBERG AVE NEWINGTON 2127
17-01-2022 $1,520,000 6 MOULTON AVE NEWINGTON 2127

Internet Speed

  • Fibre to the Basement (vectored or non-vectored)
  • Fibre to the Curb
  • Fibre to the Node
  • Fibre to the Premises
  • Satellite

Residz covers 12m+ Australian properties and brings together a wealth of data to give you a better understanding of an area. From crime and schools to bush fire, flood risk and more. Begin your search for properties for sale or learn more about where you currently reside. Residz is an exciting next-generation Real Estate platform getting better by the day!